Terminal Aerodrome Forecast
Issued by NWS New Orleans/Baton Rouge, LA

Home | Current Version | Previous Version | Text Only | Print | Product List | Glossary On
Versions: 1 2 3 4 5 6 7 8 9 10 11 12 13 14 15 16 17 18 19
000
FTUS44 KLIX 231903 AAA
TAFBTR
TAF AMD
KBTR 231903Z 2319/2418 33012KT P6SM BKN040
     FM232100 33010KT P6SM SCT060
     FM240100 33005KT P6SM SCT150
     FM241700 31009KT P6SM SKC=

USA.gov is the U.S. government's official web portal to all federal, state and local government web resources and services.